Year,Month,Day,Hour,Minute,Value (Times are PST for temperature in C)
2019,05,09,00,00,14.30
2019,05,09,00,01,14.20
2019,05,09,00,02,14.20
2019,05,09,00,03,14.20
2019,05,09,00,04,14.20
2019,05,09,00,05,14.20
2019,05,09,00,06,14.20
2019,05,09,00,07,14.20
2019,05,09,00,08,14.10
2019,05,09,00,09,14.10
2019,05,09,00,10,14.10
2019,05,09,00,11,14.10
2019,05,09,00,12,14.10
2019,05,09,00,13,14.00
2019,05,09,00,14,14.00
2019,05,09,00,15,13.90
2019,05,09,00,16,13.90
2019,05,09,00,17,13.90
2019,05,09,00,18,13.90
2019,05,09,00,19,13.90
2019,05,09,00,20,13.80
2019,05,09,00,21,13.80
2019,05,09,00,22,13.80
2019,05,09,00,23,13.70
2019,05,09,00,24,13.70
2019,05,09,00,25,13.60
2019,05,09,00,26,13.60
2019,05,09,00,27,13.60
2019,05,09,00,28,13.50
2019,05,09,00,29,13.50
2019,05,09,00,30,13.50
2019,05,09,00,31,13.40
2019,05,09,00,32,13.40
2019,05,09,00,33,13.40
2019,05,09,00,34,13.40
2019,05,09,00,35,13.40
2019,05,09,00,36,13.40
2019,05,09,00,37,13.50
2019,05,09,00,38,13.50
2019,05,09,00,39,13.60
2019,05,09,00,40,13.60
2019,05,09,00,41,13.70
2019,05,09,00,42,13.70
2019,05,09,00,43,13.80
2019,05,09,00,44,13.80
2019,05,09,00,45,13.80
2019,05,09,00,46,13.80
2019,05,09,00,47,13.80
2019,05,09,00,48,13.80
2019,05,09,00,49,13.80
2019,05,09,00,50,13.70
2019,05,09,00,51,13.70
2019,05,09,00,52,13.70
2019,05,09,00,53,13.60
2019,05,09,00,54,13.60
2019,05,09,00,55,13.60
2019,05,09,00,56,13.50
2019,05,09,00,57,13.50
2019,05,09,00,58,13.50
2019,05,09,00,59,13.50
2019,05,09,01,00,13.60
2019,05,09,01,01,13.60
2019,05,09,01,02,13.50
2019,05,09,01,03,13.50
2019,05,09,01,04,13.50
2019,05,09,01,05,13.50
2019,05,09,01,06,13.60
2019,05,09,01,07,13.50
2019,05,09,01,08,13.50
2019,05,09,01,09,13.50
2019,05,09,01,10,13.50
2019,05,09,01,11,13.50
2019,05,09,01,12,13.50
2019,05,09,01,13,13.40
2019,05,09,01,14,13.40
2019,05,09,01,15,13.40
2019,05,09,01,16,13.40
2019,05,09,01,17,13.40
2019,05,09,01,18,13.40
2019,05,09,01,19,13.40
2019,05,09,01,20,13.40
2019,05,09,01,21,13.40
2019,05,09,01,22,13.40
2019,05,09,01,23,13.40
2019,05,09,01,24,13.50
2019,05,09,01,25,13.50
2019,05,09,01,26,13.60
2019,05,09,01,27,13.70
2019,05,09,01,28,13.80
2019,05,09,01,29,13.90
2019,05,09,01,30,13.90
2019,05,09,01,31,14.00
2019,05,09,01,32,14.10
2019,05,09,01,33,14.10
2019,05,09,01,34,14.10
2019,05,09,01,35,14.10
2019,05,09,01,36,14.10
2019,05,09,01,37,14.20
2019,05,09,01,38,14.20
2019,05,09,01,39,14.30
2019,05,09,01,40,14.30
2019,05,09,01,41,14.40
2019,05,09,01,42,14.40
2019,05,09,01,43,14.50
2019,05,09,01,44,14.50
2019,05,09,01,45,14.40
2019,05,09,01,46,14.40
2019,05,09,01,47,14.40
2019,05,09,01,48,14.50
2019,05,09,01,49,14.50
2019,05,09,01,50,14.60
2019,05,09,01,51,14.60
2019,05,09,01,52,14.70
2019,05,09,01,53,14.70
2019,05,09,01,54,14.70
2019,05,09,01,55,14.80
2019,05,09,01,56,14.80
2019,05,09,01,57,14.90
2019,05,09,01,58,15.00
2019,05,09,01,59,15.00
2019,05,09,02,00,15.10
2019,05,09,02,01,15.20
2019,05,09,02,02,15.30
2019,05,09,02,03,15.40
2019,05,09,02,04,15.40
2019,05,09,02,05,15.40
2019,05,09,02,06,15.40
2019,05,09,02,07,15.40
2019,05,09,02,08,15.50
2019,05,09,02,09,15.50
2019,05,09,02,10,15.60
2019,05,09,02,11,15.70
2019,05,09,02,12,15.80
2019,05,09,02,13,15.90
2019,05,09,02,14,16.00
2019,05,09,02,15,16.00
2019,05,09,02,16,16.20
2019,05,09,02,17,16.20
2019,05,09,02,18,16.30
2019,05,09,02,19,16.30
2019,05,09,02,20,16.30
2019,05,09,02,21,16.30
2019,05,09,02,22,16.30
2019,05,09,02,23,16.20
2019,05,09,02,24,16.10
2019,05,09,02,25,16.00
2019,05,09,02,26,16.00
2019,05,09,02,27,15.90
2019,05,09,02,28,15.80
2019,05,09,02,29,15.80
2019,05,09,02,30,15.80
2019,05,09,02,31,15.80
2019,05,09,02,32,15.80
2019,05,09,02,33,15.80
2019,05,09,02,34,15.80
2019,05,09,02,35,15.70
2019,05,09,02,36,15.70
2019,05,09,02,37,15.60
2019,05,09,02,38,15.50
2019,05,09,02,39,15.30
2019,05,09,02,40,15.20
2019,05,09,02,41,15.00
2019,05,09,02,42,14.90
2019,05,09,02,43,14.80
2019,05,09,02,44,14.70
2019,05,09,02,45,14.70
2019,05,09,02,46,14.70
2019,05,09,02,47,14.70
2019,05,09,02,48,14.70
2019,05,09,02,49,14.70
2019,05,09,02,50,14.70
2019,05,09,02,51,14.70
2019,05,09,02,52,14.80
2019,05,09,02,53,14.80
2019,05,09,02,54,14.80
2019,05,09,02,55,14.80
2019,05,09,02,56,14.90
2019,05,09,02,57,14.90
2019,05,09,02,58,14.90
2019,05,09,02,59,14.90
2019,05,09,03,00,14.80
2019,05,09,03,01,14.80
2019,05,09,03,02,14.60
2019,05,09,03,03,14.50
2019,05,09,03,04,14.40
2019,05,09,03,05,14.20
2019,05,09,03,06,14.10
2019,05,09,03,07,14.00
2019,05,09,03,08,13.80
2019,05,09,03,09,13.70
2019,05,09,03,10,13.60
2019,05,09,03,11,13.50
2019,05,09,03,12,13.40
2019,05,09,03,13,13.40
2019,05,09,03,14,13.30
2019,05,09,03,15,13.20
2019,05,09,03,16,13.20
2019,05,09,03,17,13.20
2019,05,09,03,18,13.10
2019,05,09,03,19,13.10
2019,05,09,03,20,13.10
2019,05,09,03,21,13.10
2019,05,09,03,22,13.00
2019,05,09,03,23,13.00
2019,05,09,03,24,12.90
2019,05,09,03,25,12.90
2019,05,09,03,26,12.90
2019,05,09,03,27,12.90
2019,05,09,03,28,12.80
2019,05,09,03,29,12.80
2019,05,09,03,30,12.80
2019,05,09,03,31,12.80
2019,05,09,03,32,12.80
2019,05,09,03,33,12.80
2019,05,09,03,34,12.80
2019,05,09,03,35,12.80
2019,05,09,03,36,12.80
2019,05,09,03,37,12.70
2019,05,09,03,38,12.70
2019,05,09,03,39,12.70
2019,05,09,03,40,12.70
2019,05,09,03,41,12.70
2019,05,09,03,42,12.70
2019,05,09,03,43,12.60
2019,05,09,03,44,12.70
2019,05,09,03,45,12.70
2019,05,09,03,46,12.70
2019,05,09,03,47,12.70
2019,05,09,03,48,12.70
2019,05,09,03,49,12.60
2019,05,09,03,50,12.60
2019,05,09,03,51,12.60
2019,05,09,03,52,12.60
2019,05,09,03,53,12.70
2019,05,09,03,54,12.70
2019,05,09,03,55,12.70
2019,05,09,03,56,12.70
2019,05,09,03,57,12.70
2019,05,09,03,58,12.60
2019,05,09,03,59,12.60
2019,05,09,04,00,12.60
2019,05,09,04,01,12.60
2019,05,09,04,02,12.60
2019,05,09,04,03,12.60
2019,05,09,04,04,12.60
2019,05,09,04,05,12.60
2019,05,09,04,06,12.60
2019,05,09,04,07,12.60
2019,05,09,04,08,12.60
2019,05,09,04,09,12.60
2019,05,09,04,10,12.60
2019,05,09,04,11,12.60
2019,05,09,04,12,12.60
2019,05,09,04,13,12.50
2019,05,09,04,14,12.50
2019,05,09,04,15,12.40
2019,05,09,04,16,12.40
2019,05,09,04,17,12.30
2019,05,09,04,18,12.30
2019,05,09,04,19,12.30
2019,05,09,04,20,12.20
2019,05,09,04,21,12.20
2019,05,09,04,22,12.10
2019,05,09,04,23,12.10
2019,05,09,04,24,12.10
2019,05,09,04,25,12.00
2019,05,09,04,26,12.00
2019,05,09,04,27,12.00
2019,05,09,04,28,11.90
2019,05,09,04,29,11.90
2019,05,09,04,30,11.90
2019,05,09,04,31,11.80
2019,05,09,04,32,11.80
2019,05,09,04,33,11.80
2019,05,09,04,34,11.70
2019,05,09,04,35,11.70
2019,05,09,04,36,11.70
2019,05,09,04,37,11.60
2019,05,09,04,38,11.60
2019,05,09,04,39,11.50
2019,05,09,04,40,11.50
2019,05,09,04,41,11.40
2019,05,09,04,42,11.40
2019,05,09,04,43,11.40
2019,05,09,04,44,11.40
2019,05,09,04,45,11.40
2019,05,09,04,46,11.40
2019,05,09,04,47,11.40
2019,05,09,04,48,11.40
2019,05,09,04,49,11.30
2019,05,09,04,50,11.30
2019,05,09,04,51,11.30
2019,05,09,04,52,11.30
2019,05,09,04,53,11.30
2019,05,09,04,54,11.30
2019,05,09,04,55,11.20
2019,05,09,04,56,11.20
2019,05,09,04,57,11.20
2019,05,09,04,58,11.20
2019,05,09,04,59,11.20
2019,05,09,05,00,11.10
2019,05,09,05,01,11.10
2019,05,09,05,02,11.10
2019,05,09,05,03,11.10
2019,05,09,05,04,11.10
2019,05,09,05,05,11.00
2019,05,09,05,06,11.00
2019,05,09,05,07,11.00
2019,05,09,05,08,10.90
2019,05,09,05,09,10.90
2019,05,09,05,10,10.90
2019,05,09,05,11,10.90
2019,05,09,05,12,10.90
2019,05,09,05,13,10.90
2019,05,09,05,14,10.90
2019,05,09,05,15,10.90
2019,05,09,05,16,10.90
2019,05,09,05,17,10.90
2019,05,09,05,18,10.90
2019,05,09,05,19,10.90
2019,05,09,05,20,10.90
2019,05,09,05,21,11.00
2019,05,09,05,22,11.00
2019,05,09,05,23,11.00
2019,05,09,05,24,11.00
2019,05,09,05,25,11.00
2019,05,09,05,26,10.90
2019,05,09,05,27,10.90
2019,05,09,05,28,10.90
2019,05,09,05,29,10.90
2019,05,09,05,30,10.90
2019,05,09,05,31,10.90
2019,05,09,05,32,10.90
2019,05,09,05,33,10.80
2019,05,09,05,34,10.80
2019,05,09,05,35,10.80
2019,05,09,05,36,10.80
2019,05,09,05,37,10.80
2019,05,09,05,38,10.80
2019,05,09,05,39,10.80
2019,05,09,05,40,10.80
2019,05,09,05,41,10.90
2019,05,09,05,42,10.90
2019,05,09,05,43,11.00
2019,05,09,05,44,11.00
2019,05,09,05,45,11.10
2019,05,09,05,46,11.10
2019,05,09,05,47,11.00
2019,05,09,05,48,11.00
2019,05,09,05,49,11.00
2019,05,09,05,50,10.90
2019,05,09,05,51,10.90
2019,05,09,05,52,10.90
2019,05,09,05,53,10.80
2019,05,09,05,54,10.80
2019,05,09,05,55,10.80
2019,05,09,05,56,10.80
2019,05,09,05,57,10.80
2019,05,09,05,58,10.70
2019,05,09,05,59,10.70
2019,05,09,06,00,10.70
2019,05,09,06,01,10.60
2019,05,09,06,02,10.60
2019,05,09,06,03,10.60
2019,05,09,06,04,10.60
2019,05,09,06,05,10.60
2019,05,09,06,06,10.60
2019,05,09,06,07,10.60
2019,05,09,06,08,10.60
2019,05,09,06,09,10.60
2019,05,09,06,10,10.60
2019,05,09,06,11,10.50
2019,05,09,06,12,10.50
2019,05,09,06,13,10.40
2019,05,09,06,14,10.40
2019,05,09,06,15,10.40
2019,05,09,06,16,10.30
2019,05,09,06,17,10.30
2019,05,09,06,18,10.30
2019,05,09,06,19,10.30
2019,05,09,06,20,10.40
2019,05,09,06,21,10.40
2019,05,09,06,22,10.50
2019,05,09,06,23,10.60
2019,05,09,06,24,10.60
2019,05,09,06,25,10.60
2019,05,09,06,26,10.60
2019,05,09,06,27,10.60
2019,05,09,06,28,10.60
2019,05,09,06,29,10.60
2019,05,09,06,30,10.60
2019,05,09,06,31,10.60
2019,05,09,06,32,10.50
2019,05,09,06,33,10.50
2019,05,09,06,34,10.50
2019,05,09,06,35,10.50
2019,05,09,06,36,10.50
2019,05,09,06,37,10.50
2019,05,09,06,38,10.50
2019,05,09,06,39,10.60
2019,05,09,06,40,10.60
2019,05,09,06,41,10.60
2019,05,09,06,42,10.60
2019,05,09,06,43,10.60
2019,05,09,06,44,10.60
2019,05,09,06,45,10.60
2019,05,09,06,46,10.50
2019,05,09,06,47,10.50
2019,05,09,06,48,10.50
2019,05,09,06,49,10.50
2019,05,09,06,50,10.60
2019,05,09,06,51,10.60
2019,05,09,06,52,10.60
2019,05,09,06,53,10.60
2019,05,09,06,54,10.60
2019,05,09,06,55,10.70
2019,05,09,06,56,10.70
2019,05,09,06,57,10.80
2019,05,09,06,58,10.80
2019,05,09,06,59,10.90
2019,05,09,07,00,10.90
2019,05,09,07,01,11.00
2019,05,09,07,02,11.00
2019,05,09,07,03,11.10
2019,05,09,07,04,11.20
2019,05,09,07,05,11.20
2019,05,09,07,06,11.30
2019,05,09,07,07,11.40
2019,05,09,07,08,11.50
2019,05,09,07,09,11.50
2019,05,09,07,10,11.60
2019,05,09,07,11,11.70
2019,05,09,07,12,11.70
2019,05,09,07,13,11.80
2019,05,09,07,14,11.80
2019,05,09,07,15,11.80
2019,05,09,07,16,11.80
2019,05,09,07,17,11.90
2019,05,09,07,18,11.90
2019,05,09,07,19,12.00
2019,05,09,07,20,12.00
2019,05,09,07,21,12.10
2019,05,09,07,22,12.20
2019,05,09,07,23,12.30
2019,05,09,07,24,12.40
2019,05,09,07,25,12.50
2019,05,09,07,26,12.60
2019,05,09,07,27,12.70
2019,05,09,07,28,12.80
2019,05,09,07,29,12.90
2019,05,09,07,30,13.00
2019,05,09,07,31,13.10
2019,05,09,07,32,13.20
2019,05,09,07,33,13.30
2019,05,09,07,34,13.30
2019,05,09,07,35,13.30
2019,05,09,07,36,13.30
2019,05,09,07,37,13.30
2019,05,09,07,38,13.30
2019,05,09,07,39,13.40
2019,05,09,07,40,13.40
2019,05,09,07,41,13.50
2019,05,09,07,42,13.50
2019,05,09,07,43,13.60
2019,05,09,07,44,13.70
2019,05,09,07,45,13.70
2019,05,09,07,46,13.80
2019,05,09,07,47,13.90
2019,05,09,07,48,13.90
2019,05,09,07,49,14.00
2019,05,09,07,50,14.10
2019,05,09,07,51,14.20
2019,05,09,07,52,14.30
2019,05,09,07,53,14.40
2019,05,09,07,54,14.50
2019,05,09,07,55,14.60
2019,05,09,07,56,14.70
2019,05,09,07,57,14.80
2019,05,09,07,58,15.00
2019,05,09,07,59,15.10
2019,05,09,08,00,15.20
2019,05,09,08,01,15.30
2019,05,09,08,02,15.40
2019,05,09,08,03,15.50
2019,05,09,08,04,15.60
2019,05,09,08,05,15.70
2019,05,09,08,06,15.80
2019,05,09,08,07,15.90
2019,05,09,08,08,16.00
2019,05,09,08,09,16.10
2019,05,09,08,10,16.20
2019,05,09,08,11,16.30
2019,05,09,08,12,16.30
2019,05,09,08,13,16.40
2019,05,09,08,14,16.50
2019,05,09,08,15,16.60
2019,05,09,08,16,16.60
2019,05,09,08,17,16.70
2019,05,09,08,18,16.80
2019,05,09,08,19,16.90
2019,05,09,08,20,17.00
2019,05,09,08,21,17.10
2019,05,09,08,22,17.10
2019,05,09,08,23,17.20
2019,05,09,08,24,17.20
2019,05,09,08,25,17.20
2019,05,09,08,26,17.10
2019,05,09,08,27,17.10
2019,05,09,08,28,17.00
2019,05,09,08,29,17.00
2019,05,09,08,30,17.00
2019,05,09,08,31,16.90
2019,05,09,08,32,16.90
2019,05,09,08,33,16.90
2019,05,09,08,34,16.80
2019,05,09,08,35,16.70
2019,05,09,08,36,16.70
2019,05,09,08,37,16.70
2019,05,09,08,38,16.70
2019,05,09,08,39,16.60
2019,05,09,08,40,16.60
2019,05,09,08,41,16.60
2019,05,09,08,42,16.60
2019,05,09,08,43,16.60
2019,05,09,08,44,16.60
2019,05,09,08,45,16.60
2019,05,09,08,46,16.50
2019,05,09,08,47,16.50
2019,05,09,08,48,16.40
2019,05,09,08,49,16.30
2019,05,09,08,50,16.30
2019,05,09,08,51,16.20
2019,05,09,08,52,16.20
2019,05,09,08,53,16.20
2019,05,09,08,54,16.20
2019,05,09,08,55,16.30
2019,05,09,08,56,16.30
2019,05,09,08,57,16.40
2019,05,09,08,58,16.50
2019,05,09,08,59,16.60
2019,05,09,09,00,16.60
2019,05,09,09,01,16.70
2019,05,09,09,02,16.70
2019,05,09,09,03,16.70
2019,05,09,09,04,16.70
2019,05,09,09,05,16.70
2019,05,09,09,06,16.70
2019,05,09,09,07,16.70
2019,05,09,09,08,16.70
2019,05,09,09,09,16.80
2019,05,09,09,10,16.90
2019,05,09,09,11,17.00
2019,05,09,09,12,17.10
2019,05,09,09,13,17.20
2019,05,09,09,14,17.30
2019,05,09,09,15,17.30
2019,05,09,09,16,17.40
2019,05,09,09,17,17.40
2019,05,09,09,18,17.40
2019,05,09,09,19,17.40
2019,05,09,09,20,17.30
2019,05,09,09,21,17.20
2019,05,09,09,22,17.20
2019,05,09,09,23,17.20
2019,05,09,09,24,17.10
2019,05,09,09,25,17.10
2019,05,09,09,26,17.10
2019,05,09,09,27,17.10
2019,05,09,09,28,17.20
2019,05,09,09,29,17.20
2019,05,09,09,30,17.30
2019,05,09,09,31,17.30
2019,05,09,09,32,17.30
2019,05,09,09,33,17.20
2019,05,09,09,34,17.20
2019,05,09,09,35,17.30
2019,05,09,09,36,17.30
2019,05,09,09,37,17.30
2019,05,09,09,38,17.40
2019,05,09,09,39,17.50
2019,05,09,09,40,17.60
2019,05,09,09,41,17.60
2019,05,09,09,42,17.70
2019,05,09,09,43,17.70
2019,05,09,09,44,17.70
2019,05,09,09,45,17.70
2019,05,09,09,46,17.70
2019,05,09,09,47,17.70
2019,05,09,09,48,17.70
2019,05,09,09,49,17.80
2019,05,09,09,50,17.80
2019,05,09,09,51,17.90
2019,05,09,09,52,18.00
2019,05,09,09,53,18.10
2019,05,09,09,54,18.20
2019,05,09,09,55,18.40
2019,05,09,09,56,18.50
2019,05,09,09,57,18.70
2019,05,09,09,58,19.00
2019,05,09,09,59,19.10
2019,05,09,10,00,19.20
2019,05,09,10,01,19.30
2019,05,09,10,02,19.30
2019,05,09,10,03,19.30
2019,05,09,10,04,19.30
2019,05,09,10,05,19.20
2019,05,09,10,06,19.10
2019,05,09,10,07,19.00
2019,05,09,10,08,18.90
2019,05,09,10,09,18.90
2019,05,09,10,10,19.00
2019,05,09,10,11,19.10
2019,05,09,10,12,19.20
2019,05,09,10,13,19.40
2019,05,09,10,14,19.60
2019,05,09,10,15,19.70
2019,05,09,10,16,19.80
2019,05,09,10,17,19.90
2019,05,09,10,18,20.00
2019,05,09,10,19,20.20
2019,05,09,10,20,20.30
2019,05,09,10,21,20.40
2019,05,09,10,22,20.50
2019,05,09,10,23,20.60
2019,05,09,10,24,20.70
2019,05,09,10,25,20.80
2019,05,09,10,26,20.90
2019,05,09,10,27,21.00
2019,05,09,10,28,21.00
2019,05,09,10,29,21.10
2019,05,09,10,30,21.10
2019,05,09,10,31,21.10
2019,05,09,10,32,21.10
2019,05,09,10,33,21.10
2019,05,09,10,34,21.20
2019,05,09,10,35,21.20
2019,05,09,10,36,21.20
2019,05,09,10,37,21.20
2019,05,09,10,38,21.20
2019,05,09,10,39,21.20
2019,05,09,10,40,21.10
2019,05,09,10,41,21.10
2019,05,09,10,42,21.20
2019,05,09,10,43,21.20
2019,05,09,10,44,21.20
2019,05,09,10,45,21.20
2019,05,09,10,46,21.20
2019,05,09,10,47,21.20
2019,05,09,10,48,21.10
2019,05,09,10,49,21.10
2019,05,09,10,50,21.10
2019,05,09,10,51,21.00
2019,05,09,10,52,21.00
2019,05,09,10,53,21.00
2019,05,09,10,54,20.90
2019,05,09,10,55,20.90
2019,05,09,10,56,20.80
2019,05,09,10,57,20.60
2019,05,09,10,58,20.40
2019,05,09,10,59,20.20
2019,05,09,11,00,19.90
2019,05,09,11,01,19.70
2019,05,09,11,02,19.50
2019,05,09,11,03,19.40
2019,05,09,11,04,19.30
2019,05,09,11,05,19.10
2019,05,09,11,06,18.90
2019,05,09,11,07,18.80
2019,05,09,11,08,18.80
2019,05,09,11,09,18.80
2019,05,09,11,10,18.80
2019,05,09,11,11,18.90
2019,05,09,11,12,19.00
2019,05,09,11,13,19.10
2019,05,09,11,14,19.20
2019,05,09,11,15,19.30
2019,05,09,11,16,19.30
2019,05,09,11,17,19.40
2019,05,09,11,18,19.50
2019,05,09,11,19,19.60
2019,05,09,11,20,19.70
2019,05,09,11,21,19.80
2019,05,09,11,22,19.90
2019,05,09,11,23,19.90
2019,05,09,11,24,20.00
2019,05,09,11,25,20.00
2019,05,09,11,26,20.10
2019,05,09,11,27,20.10
2019,05,09,11,28,20.00
2019,05,09,11,29,20.00
2019,05,09,11,30,20.00
2019,05,09,11,31,20.00
2019,05,09,11,32,20.00
2019,05,09,11,33,20.00
2019,05,09,11,34,20.00
2019,05,09,11,35,20.10
2019,05,09,11,36,20.10
2019,05,09,11,37,20.20
2019,05,09,11,38,20.20
2019,05,09,11,39,20.30
2019,05,09,11,40,20.30
2019,05,09,11,41,20.40
2019,05,09,11,42,20.50
2019,05,09,11,43,20.50
2019,05,09,11,44,20.60
2019,05,09,11,45,20.60
2019,05,09,11,46,20.60
2019,05,09,11,47,20.60
2019,05,09,11,48,20.60
2019,05,09,11,49,20.60
2019,05,09,11,50,20.60
2019,05,09,11,51,20.70
2019,05,09,11,52,20.70
2019,05,09,11,53,20.70
2019,05,09,11,54,20.70
2019,05,09,11,55,20.80
2019,05,09,11,56,20.80
2019,05,09,11,57,20.80
2019,05,09,11,58,20.80
2019,05,09,11,59,20.80
2019,05,09,12,00,20.80
2019,05,09,12,01,20.80
2019,05,09,12,02,20.70
2019,05,09,12,03,20.70
2019,05,09,12,04,20.70
2019,05,09,12,05,20.70
2019,05,09,12,06,20.70
2019,05,09,12,07,20.70
2019,05,09,12,08,20.70
2019,05,09,12,09,20.70
2019,05,09,12,10,20.80
2019,05,09,12,11,20.80
2019,05,09,12,12,20.80
2019,05,09,12,13,20.90
2019,05,09,12,14,21.00
2019,05,09,12,15,21.10
2019,05,09,12,16,21.20
2019,05,09,12,17,21.20
2019,05,09,12,18,21.30
2019,05,09,12,19,21.30
2019,05,09,12,20,21.20
2019,05,09,12,21,21.20
2019,05,09,12,22,21.10
2019,05,09,12,23,21.10
2019,05,09,12,24,21.10
2019,05,09,12,25,21.20
2019,05,09,12,26,21.20
2019,05,09,12,27,21.30
2019,05,09,12,28,21.30
2019,05,09,12,29,21.30
2019,05,09,12,30,21.20
2019,05,09,12,31,21.20
2019,05,09,12,32,21.20
2019,05,09,12,33,21.30
2019,05,09,12,34,21.30
2019,05,09,12,35,21.30
2019,05,09,12,36,21.30
2019,05,09,12,37,21.30
2019,05,09,12,38,21.40
2019,05,09,12,39,21.40
2019,05,09,12,40,21.50
2019,05,09,12,41,21.50
2019,05,09,12,42,21.60
2019,05,09,12,43,21.60
2019,05,09,12,44,21.60
2019,05,09,12,45,21.60
2019,05,09,12,46,21.70
2019,05,09,12,47,21.70
2019,05,09,12,48,21.80
2019,05,09,12,49,21.90
2019,05,09,12,50,22.00
2019,05,09,12,51,22.10
2019,05,09,12,52,22.20
2019,05,09,12,53,22.20
2019,05,09,12,54,22.20
2019,05,09,12,55,22.30
2019,05,09,12,56,22.30
2019,05,09,12,57,22.40
2019,05,09,12,58,22.50
2019,05,09,12,59,22.60
2019,05,09,13,00,22.70
2019,05,09,13,01,22.70
2019,05,09,13,02,22.70
2019,05,09,13,03,22.70
2019,05,09,13,04,22.80
2019,05,09,13,05,22.80
2019,05,09,13,06,22.90
2019,05,09,13,07,22.90
2019,05,09,13,08,22.90
2019,05,09,13,09,22.90
2019,05,09,13,10,22.90
2019,05,09,13,11,22.90
2019,05,09,13,12,22.90
2019,05,09,13,13,22.80
2019,05,09,13,14,22.80
2019,05,09,13,15,22.80
2019,05,09,13,16,22.90
2019,05,09,13,17,23.00
2019,05,09,13,18,23.00
2019,05,09,13,19,23.10
2019,05,09,13,20,23.10
2019,05,09,13,21,23.10
2019,05,09,13,22,23.20
2019,05,09,13,23,23.20
2019,05,09,13,24,23.20
2019,05,09,13,25,23.20
2019,05,09,13,26,23.20
2019,05,09,13,27,23.30
2019,05,09,13,28,23.30
2019,05,09,13,29,23.30
2019,05,09,13,30,23.30
2019,05,09,13,31,23.40
2019,05,09,13,32,23.40
2019,05,09,13,33,23.30
2019,05,09,13,34,23.30
2019,05,09,13,35,23.20
2019,05,09,13,36,23.20
2019,05,09,13,37,23.10
2019,05,09,13,38,23.10
2019,05,09,13,39,23.00
2019,05,09,13,40,23.00
2019,05,09,13,41,22.90
2019,05,09,13,42,22.90
2019,05,09,13,43,23.00
2019,05,09,13,44,23.10
2019,05,09,13,45,23.20
2019,05,09,13,46,23.40
2019,05,09,13,47,23.50
2019,05,09,13,48,23.60
2019,05,09,13,49,23.60
2019,05,09,13,50,23.60
2019,05,09,13,51,23.60
2019,05,09,13,52,23.60
2019,05,09,13,53,23.60
2019,05,09,13,54,23.60
2019,05,09,13,55,23.60
2019,05,09,13,56,23.60
2019,05,09,13,57,23.70
2019,05,09,13,58,23.80
2019,05,09,13,59,23.90
2019,05,09,14,00,24.10
2019,05,09,14,01,24.30
2019,05,09,14,02,24.40
2019,05,09,14,03,24.50
2019,05,09,14,04,24.60
2019,05,09,14,05,24.60
2019,05,09,14,06,24.70
2019,05,09,14,07,24.80
2019,05,09,14,08,24.90
2019,05,09,14,09,24.90
2019,05,09,14,10,24.90
2019,05,09,14,11,24.90
2019,05,09,14,12,24.90
2019,05,09,14,13,24.90
2019,05,09,14,14,24.80
2019,05,09,14,15,24.80
2019,05,09,14,16,24.80
2019,05,09,14,17,24.80
2019,05,09,14,18,24.90
2019,05,09,14,19,24.90
2019,05,09,14,20,25.00
2019,05,09,14,21,25.00
2019,05,09,14,22,25.10
2019,05,09,14,23,25.10
2019,05,09,14,24,25.00
2019,05,09,14,25,24.90
2019,05,09,14,26,24.90
2019,05,09,14,27,24.90
2019,05,09,14,28,24.90
2019,05,09,14,29,25.00
2019,05,09,14,30,25.00
2019,05,09,14,31,24.90
2019,05,09,14,32,24.90
2019,05,09,14,33,24.90
2019,05,09,14,34,25.00
2019,05,09,14,35,25.00
2019,05,09,14,36,25.00
2019,05,09,14,37,25.00
2019,05,09,14,38,24.90
2019,05,09,14,39,24.90
2019,05,09,14,40,24.90
2019,05,09,14,41,24.90
2019,05,09,14,42,25.00
2019,05,09,14,43,25.10
2019,05,09,14,44,25.20
2019,05,09,14,45,25.20
2019,05,09,14,46,25.10
2019,05,09,14,47,25.00
2019,05,09,14,48,25.00
2019,05,09,14,49,24.90
2019,05,09,14,50,24.90
2019,05,09,14,51,24.90
2019,05,09,14,52,24.90
2019,05,09,14,53,24.90
2019,05,09,14,54,24.80
2019,05,09,14,55,24.70
2019,05,09,14,56,24.60
2019,05,09,14,57,24.50
2019,05,09,14,58,24.50
2019,05,09,14,59,24.50
2019,05,09,15,00,24.50
2019,05,09,15,01,24.40
2019,05,09,15,02,24.50
2019,05,09,15,03,24.60
2019,05,09,15,04,24.70
2019,05,09,15,05,24.80
2019,05,09,15,06,24.90
2019,05,09,15,07,25.00
2019,05,09,15,08,25.10
2019,05,09,15,09,25.20
2019,05,09,15,10,25.20
2019,05,09,15,11,25.20
2019,05,09,15,12,25.20
2019,05,09,15,13,25.30
2019,05,09,15,14,25.30
2019,05,09,15,15,25.40
2019,05,09,15,16,25.50
2019,05,09,15,17,25.60
2019,05,09,15,18,25.60
2019,05,09,15,19,25.70
2019,05,09,15,20,25.70
2019,05,09,15,21,25.70
2019,05,09,15,22,25.70
2019,05,09,15,23,25.70
2019,05,09,15,24,25.70
2019,05,09,15,25,25.70
2019,05,09,15,26,25.70
2019,05,09,15,27,25.70
2019,05,09,15,28,25.80
2019,05,09,15,29,25.80
2019,05,09,15,30,25.80
2019,05,09,15,31,25.80
2019,05,09,15,32,25.80
2019,05,09,15,33,25.80
2019,05,09,15,34,25.80
2019,05,09,15,35,25.70
2019,05,09,15,36,25.60
2019,05,09,15,37,25.50
2019,05,09,15,38,25.50
2019,05,09,15,39,25.40
2019,05,09,15,40,25.40
2019,05,09,15,41,25.40
2019,05,09,15,42,25.40
2019,05,09,15,43,25.40
2019,05,09,15,44,25.30
2019,05,09,15,45,25.30
2019,05,09,15,46,25.30
2019,05,09,15,47,25.30
2019,05,09,15,48,25.30
2019,05,09,15,49,25.30
2019,05,09,15,50,25.30
2019,05,09,15,51,25.40
2019,05,09,15,52,25.40
2019,05,09,15,53,25.40
2019,05,09,15,54,25.50
2019,05,09,15,55,25.60
2019,05,09,15,56,25.70
2019,05,09,15,57,25.70
2019,05,09,15,58,25.80
2019,05,09,15,59,25.80
2019,05,09,16,00,25.80
2019,05,09,16,01,25.80
2019,05,09,16,02,25.80
2019,05,09,16,03,25.80
2019,05,09,16,04,25.70
2019,05,09,16,05,25.70
2019,05,09,16,06,25.70
2019,05,09,16,07,25.80
2019,05,09,16,08,25.80
2019,05,09,16,09,25.70
2019,05,09,16,10,25.70
2019,05,09,16,11,25.70
2019,05,09,16,12,25.70
2019,05,09,16,13,25.70
2019,05,09,16,14,25.70
2019,05,09,16,15,25.60
2019,05,09,16,16,25.60
2019,05,09,16,17,25.50
2019,05,09,16,18,25.40
2019,05,09,16,19,25.30
2019,05,09,16,20,25.20
2019,05,09,16,21,25.20
2019,05,09,16,22,25.20
2019,05,09,16,23,25.20
2019,05,09,16,24,25.20
2019,05,09,16,25,25.20
2019,05,09,16,26,25.20
2019,05,09,16,27,25.20
2019,05,09,16,28,25.20
2019,05,09,16,29,25.30
2019,05,09,16,30,25.30
2019,05,09,16,31,25.40
2019,05,09,16,32,25.50
2019,05,09,16,33,25.50
2019,05,09,16,34,25.50
2019,05,09,16,35,25.50
2019,05,09,16,36,25.50
2019,05,09,16,37,25.50
2019,05,09,16,38,25.50
2019,05,09,16,39,25.50
2019,05,09,16,40,25.50
2019,05,09,16,41,25.50
2019,05,09,16,42,25.50
2019,05,09,16,43,25.40
2019,05,09,16,44,25.40
2019,05,09,16,45,25.50
2019,05,09,16,46,25.40
2019,05,09,16,47,25.40
2019,05,09,16,48,25.40
2019,05,09,16,49,25.40
2019,05,09,16,50,25.40
2019,05,09,16,51,25.40
2019,05,09,16,52,25.30
2019,05,09,16,53,25.30
2019,05,09,16,54,25.30
2019,05,09,16,55,25.30
2019,05,09,16,56,25.30
2019,05,09,16,57,25.30
2019,05,09,16,58,25.30
2019,05,09,16,59,25.30
2019,05,09,17,00,25.30
2019,05,09,17,01,25.30
2019,05,09,17,02,25.30
2019,05,09,17,03,25.30
2019,05,09,17,04,25.30
2019,05,09,17,05,25.40
2019,05,09,17,06,25.40
2019,05,09,17,07,25.40
2019,05,09,17,08,25.50
2019,05,09,17,09,25.50
2019,05,09,17,10,25.50
2019,05,09,17,11,25.50
2019,05,09,17,12,25.50
2019,05,09,17,13,25.50
2019,05,09,17,14,25.50
2019,05,09,17,15,25.60
2019,05,09,17,16,25.60
2019,05,09,17,17,25.70
2019,05,09,17,18,25.70
2019,05,09,17,19,25.70